Tracking 19575 objects as of 19-Feb-2019
HD Live streaming from Space Station
objects crossing your sky now

METEOR 2-5 DEB

Track METEOR 2-5 DEB now!
10-day predictions


NORAD ID: 38276
Int'l Code: 1979-095BW
Perigee: 835.7 km
Apogee: 855.3 km
Inclination: 81.2 °
Period: 101.7 minutes
Semi major axis: 7216 km
RCS: 0.003 m2 (small)
Launch date: October 31, 1979
Source: Commonwealth of Independent States (former USSR) (CIS)
Launch site: PLESETSK MISSILE AND SPACE COMPLEX (PKMTR)

Note: This is SATELLITE DEBRIS
aabbcc
Your satellite tracking list
Your tracking list is empty




NASA's NSSDC Master Catalog

Two Line Element Set (TLE):
1 38276U 79095BW  19046.00118149  .00000779  00000-0  38752-3 0  9991
2 38276  81.1984 291.5191 0013572 218.0748 204.9593 14.16161950 18527
Source of the keplerian elements: AFSPC